Location: Brede
(50.9167°N, 0.6000°E)
Time: 19:25:12
(UTC+00:00)

Cosmos 1536 - Pass Details

Date: 08 August 2020
Orbit: 541 x 557 km, 82.5° (Epoch: 24 September)

Event Time Altitude Azimuth Distance (km) Brightness Sun altitude
Exits shadow 00:15:03 23° 273° (W) 1,198 4.5 -23.0°
Maximum altitude 00:15:47 24° 291° (WNW) 1,155 4.6 -23.0°
Drops below altitude 10° 00:19:06 10° 347° (NNW) 1,823 6.5 -22.9°
Sets 00:21:35 0° 1° (N) 2,719 7.8 -22.9°
